TimeAKDT,TemperatureF,Dew PointF,Humidity,Sea Level PressureIn,VisibilityMPH,Wind Direction,Wind SpeedMPH,Gust SpeedMPH,PrecipitationIn,Events,Conditions,WindDirDegrees,DateUTC
12:53 AM,24.1,9.0,53,30.17,10.0,SW,4.6,-,N/A,,Clear,230,2013-04-13 08:53:00
1:53 AM,25.0,7.0,46,30.19,10.0,WNW,8.1,-,N/A,,Clear,290,2013-04-13 09:53:00
2:53 AM,24.1,10.0,55,30.20,10.0,West,8.1,-,N/A,,Clear,280,2013-04-13 10:53:00
3:53 AM,23.0,10.9,60,30.20,10.0,West,9.2,-,N/A,,Clear,280,2013-04-13 11:53:00
4:53 AM,23.0,8.1,53,30.20,10.0,West,9.2,-,N/A,,Clear,280,2013-04-13 12:53:00
5:53 AM,21.9,8.1,55,30.21,10.0,West,6.9,-,N/A,,Clear,280,2013-04-13 13:53:00
6:53 AM,21.9,8.1,55,30.21,10.0,West,6.9,-,N/A,,Partly Cloudy,280,2013-04-13 14:53:00
7:53 AM,24.1,8.1,51,30.22,10.0,WNW,16.1,-,N/A,,Partly Cloudy,290,2013-04-13 15:53:00
8:53 AM,26.1,8.1,47,30.23,10.0,WNW,9.2,-,N/A,,Partly Cloudy,290,2013-04-13 16:53:00
9:53 AM,30.0,7.0,38,30.24,10.0,WNW,15.0,19.6,N/A,,Partly Cloudy,290,2013-04-13 17:53:00
10:53 AM,30.9,9.0,40,30.25,10.0,WNW,15.0,27.6,N/A,,Partly Cloudy,290,2013-04-13 18:53:00
11:53 AM,34.0,8.1,34,30.26,10.0,WNW,15.0,27.6,N/A,,Partly Cloudy,290,2013-04-13 19:53:00
12:53 PM,34.0,8.1,34,30.27,10.0,West,21.9,26.5,N/A,,Partly Cloudy,280,2013-04-13 20:53:00
1:53 PM,35.1,7.0,31,30.30,10.0,NW,13.8,23.0,N/A,,Scattered Clouds,310,2013-04-13 21:53:00
2:53 PM,36.0,6.1,29,30.30,10.0,West,21.9,29.9,N/A,,Scattered Clouds,280,2013-04-13 22:53:00
3:53 PM,36.0,3.9,26,30.31,10.0,NW,16.1,21.9,N/A,,Scattered Clouds,310,2013-04-13 23:53:00
4:53 PM,36.0,7.0,30,30.32,10.0,West,15.0,21.9,N/A,,Scattered Clouds,280,2013-04-14 00:53:00
5:53 PM,36.0,10.0,34,30.35,10.0,WNW,13.8,21.9,N/A,,Scattered Clouds,300,2013-04-14 01:53:00
6:53 PM,35.1,7.0,31,30.36,10.0,WNW,16.1,-,N/A,,Scattered Clouds,290,2013-04-14 02:53:00
7:53 PM,33.1,12.9,43,30.37,10.0,West,8.1,-,N/A,,Scattered Clouds,270,2013-04-14 03:53:00
8:53 PM,30.9,7.0,37,30.38,10.0,West,11.5,-,N/A,,Scattered Clouds,270,2013-04-14 04:53:00
9:53 PM,30.0,8.1,40,30.40,10.0,Variable,4.6,-,N/A,,Mostly Cloudy,0,2013-04-14 05:53:00
10:53 PM,30.0,8.1,40,30.42,10.0,Variable,3.5,-,N/A,,Mostly Cloudy,0,2013-04-14 06:53:00
11:53 PM,30.0,10.0,43,30.43,10.0,WNW,9.2,-,N/A,,Mostly Cloudy,300,2013-04-14 07:53:00